Temperature
29 30 30 30 30 30 30 31 31 31 31 32 32 31 29 28 27 27 26 25 25 24 23 23 23 22 22 21 21 21 20 20 20 19 19 19 18 18 18 18 17 17 17 17
28 29 29 29 30 30 30 30 31 31 31 32 31 29 28 27 26 26 26 25 24 24 23 23 22 22 22 22 21 21 20 20 20 19 19 19 19 18 18 18 17 17 17 17
27 28 28 28 29 30 30 30 30 30 31 31 30 29 27 26 26 25 25 25 24 24 23 22 22 22 22 22 21 21 20 20 19 19 19 19 18 18 18 18 17 17 17 17
27 27 26 29 30 30 30 29 30 30 30 30 28 27 26 25 25 25 24 24 24 23 23 22 22 22 22 22 21 21 20 20 20 19 19 19 18 18 18 18 17 17 17 16
26 26 27 28 28 28 28 28 29 29 29 28 27 26 26 24 23 23 22 22 22 22 23 22 22 22 22 21 21 20 20 19 19 19 19 19 18 18 18 17 17 17 16 16
25 25 26 27 27 26 27 27 27 27 27 27 27 29 27 22 21 21 21 21 21 21 21 21 21 21 21 21 20 20 19 19 19 19 19 18 18 17 17 17 17 16 16 16
25 25 27 26 25 25 26 26 25 25 25 25 26 25 22 21 20 20 20 20 20 20 20 20 21 21 20 20 20 20 19 19 18 18 18 18 17 17 17 16 16 16 16 15
24 25 25 23 24 25 24 22 23 23 23 23 22 21 20 20 19 19 19 19 19 19 20 20 20 20 20 20 19 19 18 18 18 17 17 17 17 17 16 16 15 15 15 15
24 23 21 20 21 20 20 21 21 21 21 21 21 20 19 19 18 18 18 18 18 18 19 19 19 19 19 19 18 18 18 17 17 17 17 16 16 16 15 15 15 14 14 14
21 21 20 19 19 19 19 19 19 20 20 20 20 19 18 18 17 17 17 17 17 18 18 18 18 18 18 18 17 17 17 17 16 16 16 16 15 15 15 14 14 14 14 14
20 20 19 19 18 18 18 18 19 19 19 19 19 18 18 17 17 17 16 17 17 17 17 17 17 17 17 17 17 16 16 16 15 15 15 15 15 15 14 14 14 14 13 13
20 19 19 18 17 17 17 17 17 18 18 18 18 17 17 17 16 16 16 16 16 16 16 16 16 16 16 16 16 16 15 15 15 14 14 14 14 14 14 14 13 13 13 13
17 17 17 16 16 17 17 17 17 17 17 17 17 16 16 16 15 15 15 16 16 16 16 16 15 15 15 15 15 15 15 14 14 14 14 13 13 13 13 13 13 13 12 12
15 15 16 16 16 16 16 16 16 16 16 16 16 16 16 15 15 15 15 15 15 15 15 15 15 15 15 15 14 14 14 14 14 13 13 13 13 13 13 12 12 12 12 12
15 15 15 15 15 15 15 16 16 16 16 16 15 15 15 15 15 15 14 14 14 14 14 14 14 14 14 14 14 13 13 13 13 13 13 12 12 12 12 12 11 11 11 11
14 15 15 15 15 15 15 15 15 15 15 15 15 15 15 15 14 14 14 14 14 14 14 13 13 13 13 13 13 13 13 13 13 12 12 12 12 12 11 11 11 11 10 10
14 14 15 14 15 14 15 15 15 15 14 14 14 14 14 14 14 13 13 13 13 13 13 13 13 13 13 13 12 12 12 12 12 12 11 11 11 11 11 11 11 10 10 10
13 13 13 14 14 14 14 14 14 14 14 14 14 13 13 13 13 13 13 13 13 12 12 12 12 12 12 12 12 12 12 12 11 11 11 11 10 10 10 10 10 10 10 9
12 12 12 13 13 13 13 13 13 13 13 13 13 13 13 13 13 12 12 12 12 12 12 12 12 11 11 11 11 11 11 11 11 10 10 10 10 10 10 10 9 9 9 9
12 12 12 12 12 12 12 12 12 12 12 12 12 12 12 12 12 12 12 12 12 11 11 11 11 11 11 11 11 11 11 11 10 10 10 10 10 10 9 9 9 9 9 8
11 11 11 12 12 12 12 12 12 12 12 12 12 12 12 12 11 11 11 11 11 11 11 11 11 11 10 11 11 11 10 10 10 10 10 10 9 9 9 9 9 8 8 8
10 10 11 11 11 11 11 11 11 11 11 11 11 11 11 11 11 11 11 11 10 11 10 10 10 10 10 10 10 10 10 10 10 9 9 9 9 9 8 8 8 8 8 7
10 10 10 10 10 10 10 10 10 11 11 11 11 11 11 11 11 11 10 10 10 10 10 10 10 10 10 9 10 10 9 9 9 9 9 8 8 8 8 8 7 7 7 7
9 9 9 10 10 10 10 10 10 10 10 10 10 10 10 10 10 10 10 10 10 9 9 9 9 9 9 9 9 9 9 9 8 8 8 8 8 8 7 7 7 7 6 6
9 9 9 9 9 10 9 10 10 9 10 10 10 10 10 10 10 9 9 9 9 9 9 9 9 9 8 8 8 8 8 8 8 8 8 7 7 7 7 7 6 6 6 6
9 9 9 9 9 9 9 9 9 9 9 9 9 9 9 9 9 9 9 9 8 8 8 8 8 8 8 8 8 8 8 8 7 7 7 7 6 6 6 6 6 6 5 5
9 9 9 9 9 9 9 9 9 9 9 9 9 9 9 9 9 8 8 8 8 8 8 8 8 8 8 8 8 8 7 7 7 7 6 6 6 6 5 5 5 5 5 4
Wind_Speed
15 11 11 14 16 17 19 18 16 13 13 10 7 5 3 3 5 7 8 10 12 12 12 12 11 11 10 9 9 9 9 8 7 6 6 5 4 4 4 4 4 4 3 3
14 13 13 15 16 17 18 17 17 14 12 6 4 3 3 3 4 6 8 10 11 12 12 12 12 11 11 10 10 9 9 8 7 6 6 5 4 4 3 3 3 3 3 3
15 13 13 18 17 16 16 15 15 15 10 5 4 3 3 3 4 5 6 8 10 10 11 11 11 11 11 10 10 10 8 7 7 6 6 5 4 4 3 3 3 3 2 2
13 12 18 13 9 12 13 12 12 10 6 5 4 2 2 1 1 2 3 5 7 8 9 10 10 10 10 10 10 9 8 8 7 6 5 4 3 3 3 3 3 2 2 2
13 16 16 9 6 8 11 11 9 9 6 3 2 3 3 2 2 1 1 2 4 6 7 8 9 10 10 10 10 9 8 7 6 6 6 5 4 3 3 3 3 3 2 2
13 16 18 10 5 4 8 11 5 6 5 4 4 7 2 3 3 2 1 1 2 4 6 7 8 9 10 10 10 8 7 6 6 6 5 5 4 4 3 3 3 3 2 2
16 16 12 1 1 5 11 6 2 3 3 3 3 2 2 2 2 3 3 3 4 5 6 6 7 8 8 8 8 7 6 6 5 4 4 4 4 4 4 4 4 3 3 3
14 16 10 2 2 4 1 3 1 0 0 0 1 2 2 3 3 3 3 4 5 6 6 6 7 8 8 7 6 6 6 6 5 4 3 3 3 3 3 3 4 4 3 3
6 4 3 2 2 2 2 1 2 1 1 2 3 3 3 4 4 4 4 4 4 6 7 6 6 7 7 6 6 6 6 5 4 4 3 2 3 3 3 3 3 3 3 2
2 2 1 2 2 3 2 2 2 2 2 3 3 3 4 4 4 4 4 4 5 6 6 6 5 5 5 5 5 6 6 5 4 4 3 3 1 1 1 1 2 2 2 2
4 3 2 2 3 3 3 3 4 3 3 3 3 3 3 3 3 3 4 4 4 5 5 5 5 5 4 4 4 5 5 5 4 3 3 3 2 2 1 2 1 1 1 1
4 2 1 1 2 2 3 4 4 4 4 4 3 3 3 3 3 3 3 3 4 5 5 5 5 4 4 3 4 4 4 4 3 3 3 3 3 3 6 4 5 5 5 4
0 0 1 0 1 2 2 3 3 3 3 3 3 3 3 3 3 3 3 3 3 4 4 4 5 4 3 3 3 3 3 3 3 3 3 3 3 3 2 3 4 4 3 4
1 1 1 1 1 1 2 2 3 3 3 3 2 2 3 3 3 3 3 3 3 3 4 4 4 4 3 3 2 2 2 2 1 2 2 2 2 2 2 2 1 1 2 3
3 3 3 2 1 1 1 0 0 1 1 1 1 1 1 2 3 3 3 3 3 3 3 3 4 3 2 2 2 2 1 1 1 1 1 1 1 1 1 2 1 1 2 3
4 3 3 3 2 2 2 2 1 1 1 1 1 0 1 1 3 3 3 3 3 3 2 2 2 2 2 2 2 2 2 3 1 1 1 2 2 2 2 2 2 1 1 1
5 4 4 4 4 4 3 3 3 3 3 3 2 1 1 2 3 3 2 2 2 2 2 2 2 2 2 2 2 2 2 3 3 2 2 2 2 2 1 1 1 1 1 3
4 5 5 5 4 4 4 4 4 3 3 3 3 2 2 3 3 2 2 2 3 3 2 2 2 2 2 1 1 1 2 2 2 2 2 2 2 2 2 2 2 2 2 2
3 3 4 5 5 5 5 5 5 4 4 4 3 3 3 2 3 3 3 3 3 3 2 2 2 2 2 2 1 2 2 3 3 3 3 3 2 2 2 2 2 2 1 2
3 4 4 4 5 5 5 5 5 5 4 4 3 3 3 3 3 3 3 2 1 1 2 2 2 2 2 2 1 2 3 3 3 3 3 2 2 2 2 2 2 2 1 1
4 4 4 4 4 4 4 4 4 5 4 4 4 4 4 3 3 3 3 2 3 3 3 2 2 2 2 2 2 2 3 3 3 3 2 2 2 2 2 2 2 1 1 1
4 4 5 4 4 4 4 3 3 4 4 4 4 4 4 4 3 3 2 2 3 3 2 2 2 3 2 1 2 3 3 3 3 3 2 2 2 2 2 2 2 2 2 2
4 4 4 4 3 3 3 2 2 2 2 3 3 4 4 3 3 3 3 3 4 4 3 3 4 4 1 1 2 3 3 4 3 3 3 3 2 3 2 2 2 1 2 2
3 3 3 3 2 1 1 1 0 1 1 2 2 3 3 3 3 3 4 7 6 6 4 6 6 3 1 2 3 3 3 3 3 3 3 3 3 3 3 2 2 2 2 2
3 2 2 1 1 0 0 0 1 2 3 3 4 4 3 3 4 4 6 7 7 6 6 6 5 2 2 3 3 4 4 4 4 3 3 3 3 3 2 2 2 2 2 2
1 1 1 1 1 0 0 1 2 3 3 4 4 4 4 5 6 6 6 7 8 6 5 5 5 4 3 4 4 4 4 5 4 4 4 3 3 3 3 3 3 2 2 3
0 1 1 1 1 1 1 2 3 3 4 5 5 5 5 5 6 6 6 6 5 5 4 4 4 4 4 4 5 4 4 4 4 4 3 3 3 3 3 3 3 3 3 4
Wind_Direction
248 252 234 225 221 217 224 236 243 239 240 246 249 256 247 208 191 185 182 186 188 186 182 181 180 179 179 177 175 175 177 182 184 188 194 204 212 219 222 227 229 224 226 236
235 237 236 236 231 225 228 235 241 246 244 246 250 249 221 201 196 197 195 192 191 190 186 184 183 182 178 177 174 174 179 182 179 183 189 196 201 204 206 210 218 216 219 227
232 226 232 234 230 228 228 231 236 238 241 234 231 231 223 215 209 211 209 201 196 193 190 186 183 180 179 177 174 175 179 181 180 186 189 195 203 200 199 202 201 204 218 225
234 219 231 235 228 229 226 229 233 237 235 235 241 222 192 190 247 235 219 208 200 195 187 182 177 174 175 173 174 177 179 182 184 189 186 181 189 195 202 206 205 205 207 211
228 224 230 222 214 219 220 227 226 226 226 220 205 197 169 73 24 311 238 212 201 193 183 173 170 166 166 168 171 174 177 180 182 187 183 182 188 194 198 201 201 205 206 219
227 232 231 213 184 229 223 217 206 213 215 218 220 233 181 56 29 38 66 117 154 163 158 158 162 162 163 165 167 171 171 174 176 178 184 185 182 189 195 201 203 208 200 217
227 231 233 173 200 204 216 205 161 211 225 226 226 308 48 54 57 63 81 106 126 137 143 145 148 151 154 155 161 162 158 156 161 167 179 183 174 177 188 201 204 208 197 204
226 229 221 56 198 215 3 43 57 232 225 194 102 94 98 87 86 87 95 105 116 121 121 127 135 140 144 145 148 148 147 144 141 144 159 167 168 175 189 206 208 204 201 209
239 239 57 52 65 24 3 21 21 9 42 126 128 114 102 97 94 91 94 100 109 116 115 115 129 136 143 141 143 145 139 135 135 133 135 151 173 182 190 212 233 231 223 221
215 168 119 77 54 25 23 26 17 28 82 121 124 113 104 97 96 94 90 100 106 111 111 108 110 116 127 132 143 146 142 142 141 137 135 124 137 184 188 194 235 246 258 252
219 193 162 113 52 31 41 52 55 70 80 94 105 106 104 104 102 94 91 93 103 106 109 106 104 105 113 125 141 143 141 140 140 140 136 133 114 74 71 64 21 271 247 251
223 182 230 115 21 22 60 63 59 66 73 79 89 93 90 93 101 101 100 99 104 105 107 107 106 101 97 110 128 136 139 143 148 150 150 150 136 116 64 60 65 53 34 19
294 357 357 326 348 38 61 67 62 63 69 68 72 81 90 97 99 99 101 97 99 105 107 109 107 100 93 99 122 135 142 150 161 162 164 170 168 168 155 118 104 89 68 50
293 264 250 268 330 34 50 58 63 62 62 60 68 81 101 111 110 113 110 102 108 113 113 109 104 93 82 92 110 129 142 141 181 178 185 190 183 179 185 183 167 111 114 107
286 273 252 260 286 308 317 337 32 60 68 53 68 95 113 123 125 121 119 123 126 126 114 106 99 90 84 107 127 139 128 117 138 144 164 161 156 159 160 155 149 134 126 117
280 277 262 252 257 275 279 281 288 293 303 299 316 1 119 139 131 124 124 138 147 132 119 117 111 103 108 125 138 139 121 96 118 148 140 145 151 155 156 160 159 151 135 99
256 254 253 254 253 259 268 280 290 290 280 270 271 250 191 164 150 146 140 140 138 137 136 130 120 115 122 135 140 125 119 125 161 182 155 156 155 142 147 161 145 130 95 54
285 280 273 262 261 271 282 286 284 279 274 271 264 229 208 195 183 160 148 138 133 127 116 119 118 121 122 120 126 128 139 140 138 127 123 125 128 126 118 109 107 107 109 112
306 298 289 276 268 266 269 272 274 275 266 252 247 237 225 211 187 171 165 165 167 156 126 106 112 145 138 133 166 164 140 125 122 116 115 128 144 121 118 120 116 112 104 104
324 315 304 292 280 276 274 272 268 262 256 247 235 227 218 211 186 177 174 175 150 91 114 112 145 139 139 139 252 148 131 130 124 121 123 129 123 121 118 112 106 98 93 80
305 303 300 299 299 291 281 271 262 255 250 241 229 222 211 200 186 176 174 159 117 105 113 128 151 138 131 126 207 127 121 119 120 117 115 112 106 103 97 95 91 85 73 51
312 311 305 303 302 301 300 286 261 250 242 234 229 217 201 191 184 175 155 130 130 124 134 133 123 87 79 140 134 111 112 112 109 106 104 98 92 86 85 81 75 68 57 45
312 310 307 306 303 303 304 290 264 242 227 216 209 200 191 182 176 162 147 131 134 134 129 105 92 91 74 157 102 97 97 97 92 89 86 83 83 84 85 85 77 66 52 36
315 314 309 299 295 302 304 302 296 140 146 168 167 164 166 164 153 138 116 114 113 124 114 97 99 103 163 112 98 95 92 91 89 83 82 80 77 79 75 71 68 67 53 33
302 299 300 296 293 320 211 177 132 128 125 113 110 113 124 125 127 121 118 123 125 130 115 108 111 128 126 100 100 95 92 83 80 83 85 77 68 69 63 53 44 28 25 30
296 284 350 354 360 330 164 141 131 124 122 118 114 115 109 105 112 118 120 126 126 123 123 130 138 151 121 106 98 93 94 101 95 81 70 67 61 54 46 37 35 30 30 33
231 166 139 101 82 94 124 131 128 130 130 127 123 119 118 119 122 126 129 131 132 130 126 128 128 121 113 107 100 96 90 83 79 77 76 67 56 50 46 40 35 36 33 37
Height
1488 1483 1484 1488 1490 1492 1495 1493 1497 1495 1494 1491 1491 1494 1497 1500 1502 1504 1506 1509 1511 1514 1516 1519 1522 1524 1526 1529 1530 1532 1533 1535 1535 1536 1537 1538 1538 1538 1538 1537 1537 1537 1536 1536
1492 1486 1486 1488 1485 1486 1489 1488 1489 1489 1489 1487 1491 1494 1497 1499 1500 1502 1503 1506 1508 1511 1513 1515 1518 1520 1523 1525 1527 1529 1531 1532 1533 1534 1535 1535 1535 1535 1535 1535 1535 1534 1534 1533
1493 1486 1489 1493 1483 1483 1484 1484 1485 1489 1487 1487 1490 1493 1495 1497 1498 1500 1501 1503 1505 1507 1509 1511 1514 1517 1519 1522 1524 1526 1528 1529 1531 1531 1532 1533 1533 1533 1533 1533 1532 1532 1531 1531
1490 1493 1505 1482 1474 1476 1480 1482 1482 1483 1485 1487 1490 1493 1495 1496 1497 1498 1499 1500 1502 1504 1506 1508 1511 1513 1516 1519 1521 1523 1525 1526 1528 1529 1530 1530 1530 1530 1530 1530 1530 1530 1529 1528
1488 1492 1487 1480 1478 1478 1481 1483 1482 1483 1486 1488 1490 1492 1493 1495 1496 1497 1497 1498 1499 1501 1503 1505 1507 1509 1512 1515 1518 1520 1522 1523 1524 1526 1526 1526 1526 1527 1527 1527 1527 1527 1526 1526
1487 1491 1490 1477 1477 1480 1482 1486 1483 1484 1486 1487 1488 1486 1489 1494 1495 1495 1495 1495 1496 1498 1500 1502 1504 1506 1509 1511 1514 1516 1518 1520 1521 1522 1522 1523 1523 1524 1525 1524 1524 1524 1523 1523
1484 1485 1475 1477 1479 1481 1487 1484 1485 1485 1486 1487 1488 1489 1493 1493 1493 1493 1493 1493 1494 1496 1497 1499 1501 1504 1506 1508 1510 1512 1514 1516 1518 1519 1520 1520 1520 1521 1521 1521 1521 1521 1520 1520
1480 1482 1480 1482 1480 1481 1484 1486 1486 1487 1488 1489 1490 1491 1492 1492 1492 1493 1493 1493 1494 1495 1496 1497 1499 1502 1504 1506 1508 1509 1512 1513 1515 1516 1517 1518 1517 1518 1518 1519 1519 1518 1517 1517
1477 1480 1484 1484 1485 1487 1487 1487 1487 1488 1488 1489 1490 1491 1492 1492 1492 1493 1493 1493 1494 1495 1495 1497 1499 1500 1502 1503 1505 1507 1509 1511 1513 1513 1514 1515 1515 1515 1515 1516 1517 1516 1515 1515
1482 1483 1485 1487 1487 1488 1488 1488 1488 1489 1489 1489 1490 1491 1492 1492 1492 1493 1493 1493 1494 1495 1496 1496 1498 1499 1501 1502 1504 1505 1507 1508 1510 1511 1511 1512 1512 1513 1513 1512 1513 1513 1513 1512
1483 1485 1486 1488 1489 1489 1489 1488 1488 1489 1490 1490 1490 1491 1492 1492 1493 1493 1494 1494 1494 1495 1496 1497 1497 1498 1500 1501 1502 1504 1505 1506 1507 1508 1508 1508 1509 1510 1510 1509 1508 1509 1509 1508
1482 1486 1487 1489 1490 1490 1489 1489 1489 1489 1490 1491 1491 1491 1492 1492 1493 1493 1494 1494 1495 1496 1496 1497 1498 1498 1499 1500 1501 1502 1503 1504 1505 1506 1506 1506 1506 1506 1506 1507 1506 1506 1505 1505
1487 1488 1489 1490 1490 1490 1490 1490 1490 1490 1491 1491 1491 1491 1492 1492 1493 1493 1494 1495 1495 1495 1496 1497 1497 1498 1498 1499 1500 1500 1501 1502 1503 1503 1504 1504 1504 1504 1504 1504 1504 1503 1503 1502
1488 1489 1489 1490 1490 1490 1490 1490 1491 1491 1491 1491 1491 1492 1492 1493 1493 1494 1494 1494 1495 1496 1496 1497 1497 1497 1498 1498 1498 1499 1500 1500 1501 1501 1501 1502 1501 1501 1502 1502 1502 1501 1500 1500
1488 1488 1488 1489 1490 1490 1490 1490 1491 1491 1491 1492 1492 1492 1492 1492 1493 1493 1494 1494 1495 1496 1496 1496 1496 1496 1496 1496 1497 1497 1498 1498 1499 1499 1499 1499 1499 1499 1500 1499 1500 1499 1499 1498
1487 1487 1487 1487 1488 1489 1490 1490 1490 1490 1490 1491 1491 1491 1491 1492 1492 1492 1493 1494 1494 1495 1495 1495 1495 1495 1495 1495 1495 1496 1496 1495 1496 1497 1497 1497 1497 1497 1498 1498 1498 1498 1498 1497
1486 1486 1486 1487 1487 1488 1489 1489 1489 1489 1489 1490 1490 1490 1490 1490 1491 1491 1492 1492 1493 1492 1493 1493 1494 1493 1494 1494 1494 1495 1495 1495 1495 1495 1495 1495 1495 1496 1496 1497 1496 1496 1496 1495
1484 1484 1485 1485 1486 1486 1487 1487 1487 1487 1488 1488 1488 1488 1489 1489 1489 1490 1490 1490 1491 1491 1492 1492 1492 1492 1492 1492 1493 1493 1494 1493 1494 1494 1494 1494 1494 1494 1495 1495 1495 1495 1495 1494
1483 1483 1483 1483 1484 1484 1485 1485 1485 1486 1486 1486 1486 1486 1487 1487 1488 1488 1488 1489 1490 1490 1490 1490 1490 1491 1491 1491 1492 1492 1492 1492 1493 1493 1493 1493 1494 1494 1494 1494 1494 1494 1494 1493
1482 1482 1481 1481 1482 1482 1482 1482 1483 1483 1483 1483 1484 1484 1484 1485 1485 1486 1487 1488 1488 1489 1489 1489 1489 1490 1490 1490 1490 1491 1491 1492 1492 1493 1493 1493 1493 1493 1493 1493 1493 1493 1493 1493
1480 1480 1480 1479 1479 1479 1479 1479 1480 1480 1480 1480 1481 1482 1482 1483 1483 1484 1485 1486 1487 1487 1487 1488 1488 1489 1489 1490 1490 1491 1491 1491 1492 1492 1493 1493 1493 1493 1493 1492 1492 1492 1492 1492
1479 1478 1478 1477 1477 1477 1477 1477 1477 1477 1477 1477 1478 1479 1480 1480 1481 1483 1483 1484 1485 1485 1486 1487 1488 1488 1488 1489 1490 1491 1491 1491 1492 1492 1492 1492 1492 1492 1492 1492 1492 1492 1492 1491
1476 1476 1476 1475 1475 1474 1474 1474 1474 1474 1475 1475 1476 1476 1477 1478 1480 1481 1482 1483 1483 1484 1485 1486 1487 1487 1488 1489 1490 1491 1491 1491 1491 1492 1492 1492 1492 1492 1492 1492 1492 1491 1491 1491
1475 1474 1474 1473 1473 1473 1472 1472 1472 1472 1472 1473 1474 1475 1476 1477 1479 1480 1481 1481 1482 1483 1485 1485 1486 1487 1488 1490 1490 1491 1491 1491 1491 1492 1492 1492 1492 1492 1492 1492 1492 1491 1491 1490
1473 1473 1473 1472 1472 1472 1471 1471 1471 1471 1471 1472 1473 1474 1475 1477 1478 1479 1479 1481 1482 1483 1485 1486 1487 1488 1489 1490 1490 1491 1491 1491 1492 1492 1492 1492 1492 1492 1492 1491 1491 1491 1490 1489
1472 1472 1472 1471 1471 1471 1471 1471 1471 1472 1472 1473 1473 1474 1475 1476 1478 1479 1480 1481 1483 1484 1486 1487 1488 1489 1490 1491 1491 1491 1492 1492 1492 1492 1492 1492 1492 1492 1492 1491 1490 1490 1489 1488
1471 1471 1471 1471 1470 1470 1470 1471 1471 1472 1473 1473 1474 1476 1476 1477 1478 1480 1481 1483 1484 1485 1487 1488 1489 1490 1490 1491 1492 1492 1492 1492 1492 1492 1492 1492 1492 1492 1491 1490 1490 1489 1488 1487